Time,TemperatureF,DewpointF,PressureIn,WindDirection,WindDirectionDegrees,WindSpeedMPH,WindSpeedGustMPH,Humidity,HourlyPrecipIn,Conditions,Clouds,dailyrainin,SoftwareType,DateUTC
2013-06-28 00:01:00,70.0,54.0,29.71,North,0,3.0,10.0,57,0.00,,,0.10,,2013-06-28 05:01:00,
2013-06-28 00:11:00,69.0,55.0,29.72,North,4,4.0,12.0,61,0.00,,,0.10,,2013-06-28 05:11:00,
2013-06-28 00:33:00,68.0,54.0,29.71,North,8,3.0,10.0,61,0.00,,,0.10,,2013-06-28 05:33:00,
2013-06-28 00:43:00,69.0,55.0,29.70,North,5,3.0,12.0,61,0.00,,,0.10,,2013-06-28 05:43:00,
2013-06-28 00:53:00,69.0,55.0,29.69,NNE,23,1.0,5.0,61,0.00,,,0.10,,2013-06-28 05:53:00,
2013-06-28 01:02:00,68.0,55.0,29.68,North,0,1.0,3.0,63,0.00,,,0.10,,2013-06-28 06:02:00,
2013-06-28 01:12:00,68.0,55.0,29.68,NNE,24,0.0,0.0,64,0.00,,,0.08,,2013-06-28 06:12:00,
2013-06-28 01:22:00,67.0,55.0,29.68,NE,34,0.0,0.0,66,0.00,,,0.08,,2013-06-28 06:22:00,
2013-06-28 01:33:00,67.0,56.0,29.68,NE,34,0.0,0.0,68,0.00,,,0.08,,2013-06-28 06:33:00,
2013-06-28 01:42:00,66.0,56.0,29.68,NE,34,0.0,1.0,70,0.00,,,0.08,,2013-06-28 06:42:00,
2013-06-28 01:52:00,66.0,56.0,29.68,WSW,254,0.0,1.0,69,0.00,,,0.08,,2013-06-28 06:52:00,
2013-06-28 02:01:00,66.0,56.0,29.68,WSW,255,0.0,1.0,69,0.00,,,0.08,,2013-06-28 07:01:00,
2013-06-28 02:11:00,67.0,56.0,29.68,SW,236,1.0,3.0,69,0.00,,,0.08,,2013-06-28 07:11:00,
2013-06-28 02:22:00,67.0,56.0,29.69,WSW,242,0.0,2.0,69,0.00,,,0.08,,2013-06-28 07:22:00,
2013-06-28 02:33:00,66.0,56.0,29.69,WSW,242,0.0,2.0,70,0.00,,,0.08,,2013-06-28 07:33:00,
2013-06-28 02:43:00,66.0,56.0,29.69,WSW,245,0.0,2.0,71,0.00,,,0.08,,2013-06-28 07:43:00,
2013-06-28 02:52:00,65.0,56.0,29.68,WSW,240,1.0,2.0,72,0.00,,,0.08,,2013-06-28 07:52:00,
2013-06-28 03:01:00,65.0,56.0,29.68,WSW,247,0.0,2.0,72,0.00,,,0.08,,2013-06-28 08:01:00,
2013-06-28 03:11:00,65.0,55.0,29.68,WSW,239,0.0,2.0,71,0.00,,,0.08,,2013-06-28 08:11:00,
2013-06-28 03:22:00,65.0,56.0,29.68,WSW,240,0.0,3.0,72,0.00,,,0.08,,2013-06-28 08:22:00,
2013-06-28 03:33:00,65.0,56.0,29.68,SW,219,1.0,3.0,72,0.00,,,0.08,,2013-06-28 08:33:00,
2013-06-28 03:43:00,65.0,56.0,29.67,SW,219,0.0,2.0,73,0.00,,,0.07,,2013-06-28 08:43:00,
2013-06-28 03:52:00,64.0,55.0,29.67,WSW,246,1.0,3.0,73,0.00,,,0.06,,2013-06-28 08:52:00,
2013-06-28 04:02:00,65.0,56.0,29.67,WSW,246,0.0,2.0,73,0.00,,,0.06,,2013-06-28 09:02:00,
2013-06-28 04:11:00,64.0,55.0,29.67,WSW,237,0.0,3.0,73,0.00,,,0.06,,2013-06-28 09:11:00,
2013-06-28 04:22:00,65.0,56.0,29.67,SW,221,1.0,3.0,73,0.00,,,0.06,,2013-06-28 09:22:00,
2013-06-28 04:33:00,65.0,56.0,29.67,West,275,0.0,2.0,72,0.00,,,0.06,,2013-06-28 09:33:00,
2013-06-28 04:42:00,65.0,56.0,29.67,South,186,0.0,3.0,72,0.00,,,0.06,,2013-06-28 09:42:00,
2013-06-28 04:52:00,65.0,56.0,29.67,WSW,238,0.0,2.0,72,0.00,,,0.06,,2013-06-28 09:52:00,
2013-06-28 05:02:00,65.0,56.0,29.67,WNW,294,0.0,1.0,73,0.00,,,0.06,,2013-06-28 10:02:00,
2013-06-28 05:12:00,65.0,56.0,29.67,West,266,0.0,1.0,73,0.00,,,0.06,,2013-06-28 10:12:00,
2013-06-28 05:33:00,64.0,56.0,29.67,West,266,0.0,0.0,76,0.00,,,0.06,,2013-06-28 10:33:00,
2013-06-28 05:42:00,63.0,55.0,29.67,West,265,0.0,1.0,76,0.00,,,0.06,,2013-06-28 10:42:00,
2013-06-28 05:52:00,63.0,56.0,29.67,West,265,0.0,1.0,77,0.00,,,0.06,,2013-06-28 10:52:00,
2013-06-28 06:02:00,64.0,56.0,29.67,WSW,243,0.0,0.0,76,0.00,,,0.06,,2013-06-28 11:02:00,
2013-06-28 06:11:00,63.0,56.0,29.67,WSW,243,0.0,0.0,77,0.00,,,0.06,,2013-06-28 11:11:00,
2013-06-28 06:22:00,63.0,56.0,29.67,WSW,243,0.0,0.0,78,0.00,,,0.06,,2013-06-28 11:22:00,
2013-06-28 06:34:00,63.0,56.0,29.67,WSW,243,0.0,0.0,79,0.00,,,0.06,,2013-06-28 11:34:00,
2013-06-28 06:43:00,64.0,57.0,29.67,WSW,243,0.0,1.0,79,0.00,,,0.06,,2013-06-28 11:43:00,
2013-06-28 06:53:00,66.0,57.0,29.66,West,270,0.0,1.0,74,0.00,,,0.06,,2013-06-28 11:53:00,
2013-06-28 07:02:00,66.0,57.0,29.66,WSW,245,0.0,1.0,74,0.00,,,0.06,,2013-06-28 12:02:00,
2013-06-28 07:12:00,66.0,58.0,29.66,West,261,0.0,1.0,75,0.00,,,0.06,,2013-06-28 12:12:00,
2013-06-28 07:22:00,66.0,57.0,29.66,SW,235,0.0,2.0,74,0.00,,,0.06,,2013-06-28 12:22:00,
2013-06-28 07:34:00,67.0,59.0,29.65,West,279,0.0,2.0,75,0.00,,,0.06,,2013-06-28 12:34:00,
2013-06-28 07:43:00,67.0,58.0,29.65,NW,325,1.0,5.0,73,0.00,,,0.06,,2013-06-28 12:43:00,
2013-06-28 07:52:00,67.0,58.0,29.65,SSE,165,1.0,3.0,73,0.00,,,0.05,,2013-06-28 12:52:00,
2013-06-28 08:01:00,68.0,59.0,29.65,NNE,32,0.0,3.0,74,0.00,,,0.04,,2013-06-28 13:01:00,
2013-06-28 08:11:00,68.0,59.0,29.65,ESE,109,0.0,3.0,74,0.00,,,0.04,,2013-06-28 13:11:00,
2013-06-28 08:23:00,68.0,59.0,29.65,WSW,245,1.0,3.0,72,0.00,,,0.04,,2013-06-28 13:23:00,
2013-06-28 08:33:00,68.0,59.0,29.65,West,259,1.0,3.0,72,0.00,,,0.04,,2013-06-28 13:33:00,
2013-06-28 08:43:00,69.0,59.0,29.65,WSW,255,2.0,7.0,71,0.00,,,0.04,,2013-06-28 13:43:00,
2013-06-28 09:02:00,69.0,59.0,29.65,WNW,282,1.0,5.0,71,0.00,,,0.04,,2013-06-28 14:02:00,
2013-06-28 09:12:00,69.0,60.0,29.65,East,85,0.0,3.0,72,0.00,,,0.04,,2013-06-28 14:12:00,
2013-06-28 09:22:00,69.0,60.0,29.65,WNW,284,1.0,6.0,72,0.00,,,0.04,,2013-06-28 14:22:00,
2013-06-28 09:33:00,69.0,60.0,29.65,North,350,2.0,6.0,72,0.00,,,0.04,,2013-06-28 14:33:00,
2013-06-28 09:44:00,68.0,59.0,29.65,North,10,1.0,8.0,73,0.00,,,0.04,,2013-06-28 14:44:00,
2013-06-28 09:53:00,67.0,61.0,29.65,WSW,240,0.0,3.0,81,0.00,,,0.04,,2013-06-28 14:53:00,
2013-06-28 10:02:00,66.0,61.0,29.65,NE,43,0.0,2.0,83,0.00,,,0.04,,2013-06-28 15:02:00,
2013-06-28 10:11:00,65.0,60.0,29.65,NE,46,1.0,6.0,84,0.00,,,0.04,,2013-06-28 15:11:00,
2013-06-28 10:24:00,65.0,61.0,29.65,North,9,0.0,1.0,86,0.00,,,0.04,,2013-06-28 15:24:00,
2013-06-28 10:34:00,66.0,61.0,29.65,NW,325,0.0,5.0,84,0.00,,,0.04,,2013-06-28 15:34:00,
2013-06-28 10:43:00,67.0,61.0,29.65,WNW,302,1.0,3.0,82,0.00,,,0.04,,2013-06-28 15:43:00,
2013-06-28 10:52:00,67.0,61.0,29.64,NNE,24,1.0,6.0,80,0.00,,,0.04,,2013-06-28 15:52:00,
2013-06-28 11:01:00,67.0,61.0,29.65,NW,323,1.0,7.0,80,0.00,,,0.04,,2013-06-28 16:01:00,
2013-06-28 11:11:00,67.0,60.0,29.65,NE,37,1.0,8.0,78,0.00,,,0.04,,2013-06-28 16:11:00,
2013-06-28 11:24:00,68.0,61.0,29.65,NNE,14,1.0,5.0,78,0.00,,,0.04,,2013-06-28 16:24:00,
2013-06-28 11:33:00,68.0,60.0,29.65,North,10,1.0,8.0,76,0.00,,,0.04,,2013-06-28 16:33:00,
2013-06-28 11:44:00,69.0,61.0,29.65,NE,34,2.0,8.0,76,0.00,,,0.04,,2013-06-28 16:44:00,
2013-06-28 11:53:00,69.0,60.0,29.65,NE,53,2.0,6.0,73,0.00,,,0.04,,2013-06-28 16:53:00,
2013-06-28 12:02:00,68.0,61.0,29.65,NNE,26,1.0,8.0,79,0.02,,,0.06,,2013-06-28 17:02:00,
2013-06-28 12:11:00,69.0,61.0,29.65,NW,316,2.0,12.0,75,0.02,,,0.06,,2013-06-28 17:11:00,
2013-06-28 12:22:00,70.0,61.0,29.65,East,88,1.0,8.0,73,0.02,,,0.04,,2013-06-28 17:22:00,
2013-06-28 12:33:00,70.0,61.0,29.65,NNW,347,2.0,8.0,72,0.02,,,0.04,,2013-06-28 17:33:00,
2013-06-28 12:44:00,71.0,61.0,29.65,NNW,340,2.0,6.0,70,0.02,,,0.04,,2013-06-28 17:44:00,
2013-06-28 12:52:00,71.0,61.0,29.66,North,355,1.0,10.0,70,0.02,,,0.04,,2013-06-28 17:52:00,
2013-06-28 13:02:00,71.0,61.0,29.66,NNE,12,3.0,12.0,70,0.00,,,0.04,,2013-06-28 18:02:00,
2013-06-28 13:11:00,69.0,62.0,29.65,WSW,253,0.0,3.0,79,0.00,,,0.04,,2013-06-28 18:11:00,
2013-06-28 13:22:00,70.0,63.0,29.65,NNW,337,1.0,3.0,79,0.00,,,0.04,,2013-06-28 18:22:00,
2013-06-28 13:33:00,71.0,64.0,29.65,ESE,109,0.0,2.0,79,0.00,,,0.04,,2013-06-28 18:33:00,
2013-06-28 13:43:00,70.0,63.0,29.65,NNE,17,2.0,5.0,79,0.00,,,0.04,,2013-06-28 18:43:00,
2013-06-28 13:52:00,71.0,64.0,29.65,ENE,64,0.0,6.0,78,0.00,,,0.04,,2013-06-28 18:52:00,
2013-06-28 14:01:00,72.0,63.0,29.64,West,276,1.0,3.0,74,0.00,,,0.04,,2013-06-28 19:01:00,
2013-06-28 14:11:00,72.0,62.0,29.64,North,353,3.0,9.0,72,0.00,,,0.04,,2013-06-28 19:11:00,
2013-06-28 14:22:00,73.0,63.0,29.64,NE,41,0.0,3.0,70,0.00,,,0.04,,2013-06-28 19:22:00,
2013-06-28 14:33:00,73.0,62.0,29.64,SSW,213,1.0,3.0,69,0.00,,,0.04,,2013-06-28 19:33:00,
2013-06-28 14:43:00,71.0,62.0,29.63,West,278,1.0,3.0,74,0.00,,,0.04,,2013-06-28 19:43:00,
2013-06-28 14:53:00,73.0,63.0,29.63,WNW,283,1.0,3.0,72,0.00,,,0.04,,2013-06-28 19:53:00,
2013-06-28 15:02:00,74.0,64.0,29.63,NNW,331,1.0,3.0,72,0.00,,,0.04,,2013-06-28 20:02:00,
2013-06-28 15:11:00,75.0,64.0,29.62,NW,319,1.0,5.0,69,0.00,,,0.04,,2013-06-28 20:11:00,
2013-06-28 15:22:00,75.0,62.0,29.62,NNE,33,0.0,3.0,65,0.00,,,0.04,,2013-06-28 20:22:00,
2013-06-28 15:33:00,75.0,62.0,29.62,North,355,1.0,6.0,64,0.00,,,0.04,,2013-06-28 20:33:00,
2013-06-28 15:43:00,76.0,63.0,29.62,NNW,339,1.0,7.0,64,0.00,,,0.04,,2013-06-28 20:43:00,
2013-06-28 15:52:00,76.0,62.0,29.62,NNE,30,2.0,7.0,61,0.00,,,0.04,,2013-06-28 20:52:00,
2013-06-28 16:02:00,77.0,63.0,29.62,NNE,21,1.0,3.0,61,0.00,,,0.04,,2013-06-28 21:02:00,
2013-06-28 16:11:00,78.0,62.0,29.62,NW,311,1.0,5.0,59,0.00,,,0.04,,2013-06-28 21:11:00,
2013-06-28 16:23:00,72.0,64.0,29.63,NNE,19,0.0,3.0,76,0.00,,,0.04,,2013-06-28 21:23:00,
2013-06-28 16:34:00,69.0,64.0,29.62,North,355,0.0,3.0,83,0.00,,,0.04,,2013-06-28 21:34:00,
2013-06-28 16:53:00,69.0,65.0,29.63,NNE,25,0.0,2.0,88,0.00,,,0.04,,2013-06-28 21:53:00,
2013-06-28 17:01:00,68.0,62.0,29.63,North,349,3.0,8.0,82,0.00,,,0.04,,2013-06-28 22:01:00,
2013-06-28 17:11:00,67.0,62.0,29.64,NNE,24,1.0,7.0,85,0.00,,,0.04,,2013-06-28 22:11:00,
2013-06-28 17:22:00,67.0,63.0,29.64,NNE,15,2.0,3.0,86,0.00,,,0.04,,2013-06-28 22:22:00,
2013-06-28 17:34:00,68.0,64.0,29.64,NNE,17,0.0,2.0,87,0.00,,,0.04,,2013-06-28 22:34:00,
2013-06-28 17:43:00,70.0,66.0,29.65,North,9,0.0,1.0,86,0.00,,,0.04,,2013-06-28 22:43:00,
2013-06-28 17:52:00,71.0,65.0,29.64,NNE,22,1.0,3.0,81,0.00,,,0.04,,2013-06-28 22:52:00,
2013-06-28 18:02:00,71.0,65.0,29.64,NNE,15,0.0,3.0,82,0.00,,,0.04,,2013-06-28 23:02:00,
2013-06-28 18:11:00,71.0,65.0,29.64,North,357,1.0,6.0,80,0.00,,,0.04,,2013-06-28 23:11:00,
2013-06-28 18:34:00,70.0,62.0,29.63,NNE,26,3.0,7.0,75,0.00,,,0.04,,2013-06-28 23:34:00,
2013-06-28 18:43:00,71.0,63.0,29.63,NNE,22,1.0,6.0,76,0.00,,,0.04,,2013-06-28 23:43:00,
2013-06-28 18:53:00,72.0,62.0,29.63,NNW,327,3.0,7.0,70,0.00,,,0.04,,2013-06-28 23:53:00,
2013-06-28 19:02:00,72.0,62.0,29.63,NNW,344,2.0,9.0,70,0.00,,,0.04,,2013-06-29 00:02:00,
2013-06-28 19:11:00,72.0,62.0,29.64,NNE,25,2.0,6.0,70,0.00,,,0.04,,2013-06-29 00:11:00,
2013-06-28 19:22:00,71.0,62.0,29.64,NNE,13,1.0,5.0,72,0.00,,,0.04,,2013-06-29 00:22:00,
2013-06-28 19:33:00,70.0,61.0,29.64,North,11,2.0,6.0,73,0.00,,,0.04,,2013-06-29 00:33:00,
2013-06-28 19:42:00,71.0,62.0,29.65,North,11,1.0,3.0,74,0.00,,,0.04,,2013-06-29 00:42:00,
2013-06-28 19:52:00,71.0,62.0,29.65,North,11,1.0,3.0,74,0.00,,,0.04,,2013-06-29 00:52:00,
2013-06-28 20:01:00,71.0,62.0,29.65,NNE,23,0.0,3.0,73,0.00,,,0.04,,2013-06-29 01:01:00,
2013-06-28 20:11:00,71.0,62.0,29.65,NNE,23,0.0,3.0,73,0.00,,,0.04,,2013-06-29 01:11:00,
2013-06-28 20:22:00,71.0,62.0,29.65,NNW,348,1.0,3.0,72,0.00,,,0.04,,2013-06-29 01:22:00,
2013-06-28 20:32:00,71.0,62.0,29.65,NNW,348,1.0,3.0,72,0.00,,,0.04,,2013-06-29 01:32:00,
2013-06-28 20:42:00,71.0,62.0,29.65,NNW,348,1.0,3.0,72,0.00,,,0.04,,2013-06-29 01:42:00,
2013-06-28 20:52:00,71.0,62.0,29.65,NNW,348,1.0,3.0,72,0.00,,,0.04,,2013-06-29 01:52:00,
2013-06-28 21:41:00,69.0,61.0,29.67,NNW,348,1.0,8.0,76,0.00,,,0.04,,2013-06-29 02:41:00,
2013-06-28 21:51:00,69.0,61.0,29.67,NNW,348,1.0,8.0,76,0.00,,,0.04,,2013-06-29 02:51:00,
2013-06-28 22:01:00,69.0,61.0,29.67,NNW,348,1.0,8.0,76,0.00,,,0.04,,2013-06-29 03:01:00,
2013-06-28 22:11:00,69.0,61.0,29.67,North,0,2.0,5.0,76,0.00,,,0.04,,2013-06-29 03:11:00,
2013-06-28 22:21:00,69.0,61.0,29.67,North,0,2.0,5.0,76,0.00,,,0.04,,2013-06-29 03:21:00,
2013-06-28 22:32:00,69.0,61.0,29.67,North,0,2.0,5.0,76,0.00,,,0.04,,2013-06-29 03:32:00,
2013-06-28 22:41:00,69.0,61.0,29.67,North,0,2.0,5.0,76,0.00,,,0.04,,2013-06-29 03:41:00,
2013-06-28 22:51:00,68.0,61.0,29.68,NNE,15,1.0,5.0,78,0.00,,,0.04,,2013-06-29 03:51:00,
2013-06-28 23:01:00,67.0,60.0,29.68,NNW,332,2.0,6.0,77,0.00,,,0.03,,2013-06-29 04:01:00,
2013-06-28 23:11:00,67.0,60.0,29.68,NNW,332,2.0,6.0,77,0.00,,,0.03,,2013-06-29 04:11:00,
2013-06-28 23:23:00,67.0,60.0,29.68,NNW,332,2.0,6.0,77,0.00,,,0.03,,2013-06-29 04:23:00,
2013-06-28 23:32:00,67.0,60.0,29.68,NNW,344,3.0,7.0,77,0.00,,,0.02,,2013-06-29 04:32:00,
2013-06-28 23:41:00,67.0,60.0,29.68,NNW,344,3.0,7.0,77,0.00,,,0.02,,2013-06-29 04:41:00,
2013-06-28 23:51:00,66.0,59.0,29.68,North,5,1.0,6.0,78,0.00,,,0.02,,2013-06-29 04:51:00,